Weather History for Emporia, VA

Change the Weather History Date:

Friday, September 28, 2012

  Actual Average Record
Temperature  
Mean Temperature 68 °F -  
Max Temperature 80 °F 78 °F 89 °F (1993)
Min Temperature 55 °F 50 °F 36 °F (1989)
Cooling Degree Days 2    
Growing Degree Days 18 (Base 50)    
Moisture  
Dew Point 63 °F    
Average Humidity 88    
Maximum Humidity 100    
Minimum Humidity 58    
Precipitation  
Precipitation 0.05 in - - ()
Sea Level Pressure  
Sea Level Pressure 30.05 in    
Wind  
Wind Speed 2 mph (South)    
Max Wind Speed 9 mph    
Max Gust Speed 24 mph    
Visibility 8 miles    
Events Fog , Rain , Thunderstorm    
Averages and records for this station are not official NWS values.
T = Trace of Precipitation, MM = Missing Value Source: NWS Daily Summary

Daily Weather History Graph

Daily Weather History Graph

Search for Another Location

Airport:

Trip Planner

Search our weather history database for the weather conditions in past years. The results will help you decide how hot, cold, wet, or windy it might be!

Date:

Astronomy

Sep. 28, 2012 Rise Set
Actual Time 7:03 AM EDT 6:57 PM EDT
Civil Twilight 6:37 AM EDT 7:22 PM EDT
Nautical Twilight 6:07 AM EDT 7:52 PM EDT
Astronomical Twilight 5:36 AM EDT 8:23 PM EDT
Moon 5:57 PM EDT (9/28) 5:32 AM EDT (9/28)
Length of Visible Light 12h 45m
Length of Day
11h 54m
Waxing Gibbous, 98% of the Moon is Illuminated
Sep 28
Waxing Gibbous
Sep 29
Full
Oct 8
Last Quarter
Oct 15
New
Oct 21
First Quarter

Hourly Weather History & Observations

Time (EDT) Temp. Heat Index Dew Point Humidity Pressure Visibility Wind Dir Wind Speed Gust Speed Precip Events Conditions
12:15 AM 59.0 °F - 59.0 °F 100% 30.12 in 10.0 mi ESE 3.5 mph - N/A   Clear
12:35 AM 59.0 °F - 59.0 °F 100% 30.12 in 7.0 mi Calm Calm - N/A   Clear
1:15 AM 60.8 °F - 60.8 °F 100% 30.12 in 10.0 mi Calm Calm - N/A   Clear
1:35 AM 60.8 °F - 60.8 °F 100% 30.12 in 10.0 mi Calm Calm - N/A   Clear
1:55 AM 62.6 °F - 62.6 °F 100% 30.12 in 10.0 mi Calm Calm - N/A   Clear
2:15 AM 62.6 °F - 62.6 °F 100% 30.11 in 10.0 mi SE 3.5 mph - N/A   Clear
2:35 AM 60.8 °F - 60.8 °F 100% 30.11 in 10.0 mi SE 3.5 mph - N/A   Clear
2:55 AM 60.8 °F - 60.8 °F 100% 30.10 in 10.0 mi Calm Calm - N/A   Clear
3:15 AM 60.8 °F - 60.8 °F 100% 30.10 in 7.0 mi Calm Calm - N/A   Clear
3:35 AM 60.8 °F - 60.8 °F 100% 30.10 in 7.0 mi Calm Calm - N/A   Clear
3:55 AM 60.8 °F - 60.8 °F 100% 30.10 in 7.0 mi Calm Calm - N/A   Clear
4:15 AM 60.8 °F - 60.8 °F 100% 30.09 in 7.0 mi Calm Calm - N/A   Clear
4:35 AM 60.8 °F - 60.8 °F 100% 30.08 in 5.0 mi Calm Calm - N/A   Clear
4:55 AM 59.0 °F - 59.0 °F 100% 30.09 in 1.0 mi Calm Calm - N/A   Mist
5:15 AM 59.0 °F - 59.0 °F 100% 30.08 in 0.5 mi Calm Calm - N/A Fog Fog
5:35 AM 57.2 °F - 57.2 °F 100% 30.08 in 1.0 mi Calm Calm - N/A   Mist
5:55 AM 55.4 °F - 55.4 °F 100% 30.09 in 5.0 mi Calm Calm - N/A   Clear
6:15 AM 55.4 °F - 55.4 °F 100% 30.08 in 5.0 mi Calm Calm - N/A   Clear
6:35 AM 55.4 °F - 55.4 °F 100% 30.09 in 5.0 mi Calm Calm - N/A   Clear
6:55 AM 57.2 °F - 57.2 °F 100% 30.08 in 5.0 mi Calm Calm - N/A   Clear
7:15 AM 55.4 °F - 55.4 °F 100% 30.08 in 2.5 mi Calm Calm - N/A   Clear
7:35 AM 55.4 °F - 55.4 °F 100% 30.08 in 0.8 mi Calm Calm - N/A   Mist
7:55 AM 59.0 °F - 59.0 °F 100% 30.09 in 4.0 mi Calm Calm - N/A   Clear
8:15 AM 62.6 °F - 62.6 °F 100% 30.08 in 5.0 mi Calm Calm - N/A   Clear
8:35 AM 62.6 °F - 62.6 °F 100% 30.08 in 5.0 mi ESE 3.5 mph - N/A   Clear
8:55 AM 62.6 °F - 62.6 °F 100% 30.09 in 7.0 mi Calm Calm - N/A   Clear
9:15 AM 64.4 °F - 62.6 °F 94% 30.09 in 10.0 mi Calm Calm - N/A   Clear
9:35 AM 68.0 °F - 64.4 °F 88% 30.09 in 10.0 mi South 3.5 mph - N/A   Clear
9:55 AM 69.8 °F - 64.4 °F 83% 30.09 in 10.0 mi Calm Calm - N/A   Clear
10:15 AM 69.8 °F - 64.4 °F 83% 30.09 in 10.0 mi South 3.5 mph - N/A   Clear
10:35 AM 71.6 °F - 64.4 °F 78% 30.09 in 10.0 mi SSW 3.5 mph - N/A   Clear
10:55 AM 73.4 °F - 64.4 °F 73% 30.08 in 10.0 mi South 3.5 mph - N/A   Clear
11:15 AM 75.2 °F - 64.4 °F 69% 30.08 in 10.0 mi Calm Calm - N/A   Clear
11:35 AM 77.0 °F - 64.4 °F 65% 30.07 in 10.0 mi Calm Calm - N/A   Clear
11:55 AM 77.0 °F - 64.4 °F 65% 30.07 in 10.0 mi SSW 4.6 mph - N/A   Clear
12:15 PM 77.0 °F - 64.4 °F 65% 30.07 in 10.0 mi SSW 4.6 mph - N/A   Clear
12:35 PM 78.8 °F - 66.2 °F 65% 30.06 in 10.0 mi South 4.6 mph - N/A   Clear
12:55 PM 78.8 °F - 64.4 °F 61% 30.06 in 10.0 mi South 3.5 mph - N/A   Clear
1:15 PM 80.6 °F 82.3 °F 64.4 °F 58% 30.05 in - SW 4.6 mph - N/A   Clear
1:35 PM 78.8 °F - 64.4 °F 61% 30.04 in 10.0 mi SSW 5.8 mph - N/A   Clear
1:55 PM 78.8 °F - 66.2 °F 65% 30.03 in 10.0 mi South 3.5 mph - N/A   Clear
2:15 PM 80.6 °F 83.2 °F 68.0 °F 65% 30.03 in 10.0 mi SSE 4.6 mph - N/A   Clear
2:35 PM 80.6 °F 82.7 °F 66.2 °F 61% 30.02 in 10.0 mi South 4.6 mph - N/A   Clear
2:55 PM 78.8 °F - 66.2 °F 65% 30.01 in 10.0 mi SSE 4.6 mph - N/A   Clear
3:15 PM 80.6 °F 82.7 °F 66.2 °F 61% 30.01 in 10.0 mi South 6.9 mph - N/A   Clear
3:35 PM 80.6 °F 82.3 °F 64.4 °F 58% 30.00 in 10.0 mi SSW 4.6 mph - N/A   Clear
3:55 PM 80.6 °F 82.3 °F 64.4 °F 58% 29.99 in - South 5.8 mph - N/A   Clear
4:15 PM 80.6 °F 82.3 °F 64.4 °F 58% 29.99 in 10.0 mi SSW 4.6 mph - N/A   Clear
4:35 PM 78.8 °F - 66.2 °F 65% 29.99 in 10.0 mi Calm Calm - N/A   Clear
4:55 PM 78.8 °F - 68.0 °F 69% 29.99 in - SSW 4.6 mph - N/A   Scattered Clouds
5:15 PM 78.8 °F - 68.0 °F 69% 29.99 in 10.0 mi Calm Calm - N/A   Overcast
5:35 PM 77.0 °F - 68.0 °F 74% 30.01 in 10.0 mi Calm Calm - N/A Thunderstorm Overcast
5:55 PM 73.4 °F - 64.4 °F 73% 30.03 in - SW 9.2 mph 24.2 mph 0.03 in Rain , Thunderstorm Heavy Thunderstorms and Rain
6:15 PM 66.2 °F - 64.4 °F 94% 30.02 in 10.0 mi Calm Calm - 0.01 in   Unknown
6:35 PM 66.2 °F - 64.4 °F 94% 30.00 in 10.0 mi Calm Calm - 0.01 in Rain Light Rain
6:55 PM 64.4 °F - 64.4 °F 100% 30.00 in 10.0 mi Calm Calm - 0.02 in   Clear
7:15 PM 64.4 °F - 64.4 °F 100% 30.01 in 10.0 mi Calm Calm - N/A   Clear
7:35 PM 64.4 °F - 64.4 °F 100% 30.01 in 10.0 mi SE 3.5 mph - N/A   Mostly Cloudy
7:55 PM 64.4 °F - 64.4 °F 100% 30.02 in 10.0 mi SSE 4.6 mph - N/A   Overcast
8:15 PM 64.4 °F - 62.6 °F 94% 30.01 in 10.0 mi SE 3.5 mph - N/A   Mostly Cloudy
8:35 PM 64.4 °F - 62.6 °F 94% 30.01 in 10.0 mi Calm Calm - N/A   Scattered Clouds
8:55 PM 62.6 °F - 62.6 °F 100% 30.01 in 7.0 mi Calm Calm - N/A   Scattered Clouds
9:15 PM 62.6 °F - 62.6 °F 100% 30.01 in 7.0 mi Calm Calm - N/A   Mostly Cloudy
9:35 PM 62.6 °F - 62.6 °F 100% 30.00 in 7.0 mi Calm Calm - N/A   Scattered Clouds
9:55 PM 64.4 °F - 64.4 °F 100% 29.99 in 7.0 mi Calm Calm - N/A   Scattered Clouds
10:15 PM 62.6 °F - 62.6 °F 100% 30.00 in 7.0 mi Calm Calm - N/A   Scattered Clouds
10:35 PM 62.6 °F - 62.6 °F 100% 30.01 in 7.0 mi Calm Calm - N/A   Scattered Clouds
10:55 PM 62.6 °F - 62.6 °F 100% 30.02 in 7.0 mi Calm Calm - N/A   Mostly Cloudy
11:15 PM 62.6 °F - 62.6 °F 100% 30.02 in 7.0 mi Calm Calm - N/A   Mostly Cloudy
11:35 PM 62.6 °F - 62.6 °F 100% 30.01 in 10.0 mi Calm Calm - N/A   Scattered Clouds
11:55 PM 62.6 °F - 62.6 °F 100% 30.01 in 10.0 mi Calm Calm - N/A   Mostly Cloudy